Baltimore,Washington International Thurgood Marshal Airport Baltimore US
ICAO: KBWI
IATA: BWI
Category: Large
Scheduled Services: Yes

Elevation: 146 ft
TransAlt. 18000 ft.

Airport Communications:
POTOMAC APP:119
ATIS:115.1
CLNC DEL:118.05
POTOMAC DEP:126.75
GND:121.9
LEESBURG RDO:122.2
TWR:119.4
UNICOM:122.95

KBWI Zoom In..

If you have problems with the map follow the link
https://www.worldairports.se/pages/airport.php?
ICAO=KBWI

Runways:

(A) RW 04 length 6000 ft width 150 ft
---- / hdg 44

(B) RW 10 length 10502 ft width 150 ft
ILS 109.70 / hdg 105

(C) RW 15L length 5000 ft width 100 ft
ILS 111.95 / hdg 155

(D) RW 15R length 9501 ft width 150 ft
ILS 111.70 / hdg 155

(E) RW 22 length 6000 ft width 150 ft
---- / hdg 224

(F) RW 28 length 10502 ft width 150 ft
ILS 109.70 / hdg 285

(G) RW 33L length 9501 ft width 150 ft
ILS 111.70 / hdg 335

(H) RW 33R length 5000 ft width 100 ft
ILS 111.95 / hdg 335

Location; KBWI
Day. 06 / Time. 03.54 Zulu
* Altimeter: 30.16
* Temperature: 00° c. 32°f.
* Wind from: 000° Speed 00 kn.
Dewpoint: -04° c.
Visibility: 10 Statute Miles.
Clouds: Overcast 2000 ft.

KBWI 060354Z 00000KT 10SM OVC200 00/M04 A3016 RMK AO2 SLP213 T00001044 $


Wind - Calm.

 
 
jpsmedia worldairports.se 2019   terms of use